This is the latest recevied weather packets stored in our database for station/object K2YYD-2. If no packets are shown the sender has not sent any weather packets the latest 10 day(s).
| Time | Temp. | Humidity | Pressure | Rain* | Wind** | Luminosity | Snow |
|---|---|---|---|---|---|---|---|
| 1777668395 | 16.11° C | 47% | 1007 hPa | 0 mm | - | 448 W/m² | - |
| 1777668275 | 16.11° C | 47% | 1007 hPa | 0 mm | - | 336 W/m² | - |
| 1777668155 | 16.11° C | 46% | 1007.1 hPa | 0 mm | - | 293 W/m² | - |
| 1777668035 | 16.11° C | 46% | 1007.1 hPa | 0 mm | - | 316 W/m² | - |
| 1777667939 | 16.11° C | 47% | 1007 hPa | 0 mm | - | 384 W/m² | - |
| 1777667795 | 16.11° C | 47% | 1007 hPa | 0 mm | - | 322 W/m² | - |
| 1777667675 | 16.11° C | 46% | 1007 hPa | 0 mm | - | 429 W/m² | - |
| 1777667555 | 16.11° C | 47% | 1006.9 hPa | 0 mm | - | 485 W/m² | - |
| 1777667435 | 16.11° C | 46% | 1007 hPa | 0 mm | - | 516 W/m² | - |
| 1777667316 | 16.11° C | 47% | 1006.9 hPa | 0 mm | - | 529 W/m² | - |
| 1777667195 | 16.11° C | 47% | 1006.9 hPa | 0 mm | - | 495 W/m² | - |
| 1777667075 | 16.11° C | 46% | 1006.9 hPa | 0 mm | - | 602 W/m² | - |
| 1777666955 | 16.67° C | 46% | 1006.9 hPa | 0 mm | - | 603 W/m² | - |
| 1777666835 | 16.67° C | 47% | 1006.9 hPa | 0 mm | - | 451 W/m² | - |
| 1777666715 | 16.67° C | 46% | 1006.9 hPa | 0 mm | - | 412 W/m² | - |
| 1777666595 | 16.67° C | 45% | 1006.9 hPa | 0 mm | - | 272 W/m² | - |
| 1777666476 | 16.67° C | 46% | 1006.9 hPa | 0 mm | - | 126 W/m² | - |
| 1777666355 | 16.67° C | 48% | 1007 hPa | 0 mm | - | 163 W/m² | - |
| 1777666235 | 17.22° C | 47% | 1006.9 hPa | 0 mm | - | 192 W/m² | - |
| 1777666116 | 17.22° C | 45% | 1006.9 hPa | 0 mm | - | 193 W/m² | - |
| 1777665996 | 17.78° C | 44% | 1006.9 hPa | 0 mm | - | 136 W/m² | - |
| 1777665875 | 17.78° C | 40% | 1006.8 hPa | 0 mm | - | 170 W/m² | - |
| 1777665755 | 17.78° C | 40% | 1006.7 hPa | 0 mm | - | 270 W/m² | - |
| 1777665636 | 17.78° C | 39% | 1006.7 hPa | 0 mm | - | 361 W/m² | - |
| 1777665516 | 17.78° C | 38% | 1006.7 hPa | 0 mm | - | 654 W/m² | - |
* Rain latest hour (hover to see other rain measurements)
** Current wind speed in m/s (hover to see current wind gust speed)